This demonstration page uses our WeatherBlox Daily Observations layout. Learn more.

Left ArrowRight Arrow

Hourly Observations for May 2, 2016

Temp ( °F °C ) Dew Point ( °F °C ) Humidity (%) Winds ( mph kmh ) Pressure ( in mb ) Visibility ( mi km ) Precip ( " mm )
12:53 am 00:53 Mostly Cloudy with Light Rain 62 16.7 61 16.1 96 96 WNW 7 11 29.88 1012 7 11 0.01 0.25
1:11 am 01:11 Cloudy with Heavy Rain 63 17.2 61 16.1 93 93 WSW 3 6 29.88 1012 2 2 0.09 2.29
1:18 am 01:18 Cloudy with Light Thunderstorms 63 17.2 62 16.7 97 97 W 6 9 29.88 1012 2 2 0.10 2.54
1:20 am 01:20 Cloudy with Light Thunderstorms 63 17.2 62 16.7 97 97 W 5 7 29.88 1012 3 4 0.10 2.54
1:27 am 01:27 Cloudy with Light Thunderstorms 63 17.2 61 16.1 93 93 W 6 9 29.88 1012 8 13 0.11 2.79
1:31 am 01:31 Cloudy with Heavy Thunderstorms 63 17.2 60 15.6 90 90 W 5 7 29.88 1012 2 3 0.21 5.33
1:38 am 01:38 Cloudy with Light Thunderstorms 62 16.7 60 15.6 93 93 WSW 5 7 29.91 1013 2 2 0.22 5.59
1:40 am 01:40 Cloudy with Light Thunderstorms 62 16.7 60 15.6 93 93 W 5 7 29.91 1013 2 3 0.22 5.59
1:53 am 01:53 Cloudy with Light Thunderstorms 62 16.7 61 16.1 96 96 W 8 13 29.89 1012 6 10 0.23 5.84
2:04 am 02:04 Cloudy with Nearby Thunderstorms 62 16.7 61 16.1 96 96 NW 8 13 29.88 1012 5 8 0.01 0.25
2:16 am 02:16 Cloudy 62 16.7 61 16.1 96 96 WNW 5 7 29.88 1012 9 14 0.01 0.25
2:53 am 02:53 Partly Cloudy with Mist and Fog 61 16.1 60 15.6 97 97 N N/A 29.88 1012 6 10 0.02 0.51
3:31 am 03:31 Mostly Clear with Mist and Fog 59 15 59 15 100 100 N N/A 29.91 1013 2 3 N/A
3:38 am 03:38 Mostly Clear with Mist and Fog 59 15 58 14.4 96 96 N N/A 29.91 1013 2 2 N/A
3:42 am 03:42 Partly Cloudy with Mist and Fog 59 15 58 14.4 96 96 N N/A 29.91 1013 1 1 N/A
3:53 am 03:53 Mostly Cloudy with Mist and Fog 57 13.9 57 13.9 100 100 N N/A 29.89 1012 2 2 N/A
3:56 am 03:56 Mostly Cloudy with Mist and Fog 58 14.4 57 13.9 97 97 N N/A 29.91 1013 2 3 N/A
4:05 am 04:05 Mostly Cloudy with Mist and Fog 59 15 59 15 100 100 W 3 6 29.91 1013 6 10 N/A
4:19 am 04:19 Cloudy 61 16.1 60 15.6 97 97 W 5 7 29.91 1013 10 16 N/A
4:53 am 04:53 Cloudy 61 16.1 59 15 93 93 W 5 7 29.90 1013 10 16 N/A
5:53 am 05:53 Cloudy 60 15.6 58 14.4 93 93 WSW 3 6 29.90 1013 10 16 N/A
6:09 am 06:09 Partly Cloudy 58 14.4 57 13.9 97 97 SW 3 6 29.91 1013 10 16 N/A
6:43 am 06:43 Mostly Cloudy 59 15 58 14.4 96 96 WSW 6 9 29.94 1014 9 14 N/A
6:53 am 06:53 Cloudy 59 15 58 14.4 96 96 WSW 6 9 29.93 1013 8 13 N/A
7:38 am 07:38 Cloudy 60 15.6 58 14.4 93 93 WNW 5 7 29.97 1015 9 14 N/A
7:53 am 07:53 Cloudy 60 15.6 58 14.4 93 93 W 5 7 29.96 1014 9 14 N/A
8:50 am 08:50 Cloudy 61 16 57 14 88 88 W 3 6 29.97 1015 9 14 N/A
8:53 am 08:53 Cloudy 61 16.1 58 14.4 90 90 W 7 11 29.97 1015 9 14 N/A
9:03 am 09:03 Cloudy 60 15.6 58 14.4 93 93 W 6 9 29.97 1015 9 14 N/A
9:20 am 09:20 Cloudy 61 16.1 57 13.9 87 87 W 8 13 29.97 1015 10 16 N/A
9:30 am 09:30 Mostly Cloudy 61 16.1 57 13.9 87 87 WSW 8 13 30.00 1016 10 16 N/A
9:45 am 09:45 Cloudy 62 16.7 57 13.9 84 84 WSW 8 13 30.00 1016 10 16 N/A
9:53 am 09:53 Cloudy 62 16.7 56 13.3 80 80 W 8 13 29.98 1015 10 16 N/A
10:15 am 10:15 Mostly Cloudy 62 16.7 56 13.3 80 80 W 5 7 29.97 1015 10 16 N/A
10:44 am 10:44 Cloudy 63 17.2 55 12.8 76 76 WSW 9 15 30.00 1016 10 16 N/A
10:53 am 10:53 Cloudy 63 17.2 54 12.2 73 73 WSW 8 13 29.98 1015 10 16 N/A
11:53 am 11:53 Cloudy 64 17.8 53 11.7 68 68 WSW 8 13 29.97 1015 10 16 N/A
12:53 pm 12:53 Mostly Sunny 66 18.9 52 11.1 61 61 W 6 9 29.96 1015 10 16 N/A
1:53 pm 13:53 Mostly Cloudy 66 18.9 53 11.7 63 63 WSW 6 9 29.95 1014 10 16 N/A
2:53 pm 14:53 Mostly Cloudy 67 19.4 53 11.7 61 61 WSW 7 11 29.95 1014 10 16 N/A
3:53 pm 15:53 Mostly Cloudy 66 18.9 52 11.1 61 61 W 7 11 29.93 1014 10 16 N/A
4:53 pm 16:53 Mostly Cloudy 65 18.3 51 10.6 61 61 VRB 6 9 29.92 1013 10 16 N/A
5:53 pm 17:53 Mostly Cloudy 63 17.2 55 12.8 76 76 N 9 15 29.91 1013 10 16 N/A
6:53 pm 18:53 Mostly Cloudy 61 16.1 54 12.2 78 78 N 7 11 29.93 1014 10 16 N/A
7:53 pm 19:53 Cloudy 60 15.6 53 11.7 78 78 N 7 11 29.93 1014 10 16 N/A
8:53 pm 20:53 Cloudy 59 15 52 11.1 78 78 NNE 8 13 29.94 1014 10 16 N/A
9:36 pm 21:36 Cloudy 58 14.4 52 11.1 81 81 NNE 6 9 29.94 1014 10 16 N/A
9:49 pm 21:49 Cloudy 57 14 52 11 82 82 NNE 6 9 29.94 1014 10 16 N/A
9:53 pm 21:53 Cloudy 58 14.4 52 11.1 81 81 NNE 6 9 29.94 1014 10 16 N/A
10:53 pm 22:53 Cloudy 57 13.9 52 11.1 83 83 VRB 3 6 29.96 1014 10 16 N/A
11:53 pm 23:53 Cloudy 57 13.9 52 11.1 83 83 N 5 7 29.95 1014 10 16 N/A

Powered by AerisWeather